Year,Month,Day,Hour,Minute,Value (Times are PST for temperature in C)
2011,05,18,00,00,7.70
2011,05,18,00,01,7.70
2011,05,18,00,02,7.60
2011,05,18,00,03,7.60
2011,05,18,00,04,7.60
2011,05,18,00,05,7.60
2011,05,18,00,06,7.60
2011,05,18,00,07,7.60
2011,05,18,00,08,7.60
2011,05,18,00,09,7.50
2011,05,18,00,10,7.50
2011,05,18,00,11,7.50
2011,05,18,00,12,7.40
2011,05,18,00,13,7.40
2011,05,18,00,14,7.40
2011,05,18,00,15,7.40
2011,05,18,00,16,7.40
2011,05,18,00,17,7.30
2011,05,18,00,18,7.30
2011,05,18,00,19,7.30
2011,05,18,00,20,7.30
2011,05,18,00,21,7.30
2011,05,18,00,22,7.30
2011,05,18,00,23,7.30
2011,05,18,00,24,7.20
2011,05,18,00,25,7.20
2011,05,18,00,26,7.20
2011,05,18,00,27,7.20
2011,05,18,00,28,7.20
2011,05,18,00,29,7.20
2011,05,18,00,30,7.10
2011,05,18,00,31,7.10
2011,05,18,00,32,7.10
2011,05,18,00,33,7.10
2011,05,18,00,34,7.10
2011,05,18,00,35,7.10
2011,05,18,00,36,7.10
2011,05,18,00,37,7.00
2011,05,18,00,38,7.00
2011,05,18,00,39,6.90
2011,05,18,00,40,6.90
2011,05,18,00,41,6.80
2011,05,18,00,42,6.80
2011,05,18,00,43,6.80
2011,05,18,00,44,6.80
2011,05,18,00,45,6.70
2011,05,18,00,46,6.70
2011,05,18,00,47,6.70
2011,05,18,00,48,6.70
2011,05,18,00,49,6.70
2011,05,18,00,50,6.60
2011,05,18,00,51,6.60
2011,05,18,00,52,6.60
2011,05,18,00,53,6.50
2011,05,18,00,54,6.50
2011,05,18,00,55,6.50
2011,05,18,00,56,6.40
2011,05,18,00,57,6.40
2011,05,18,00,58,6.40
2011,05,18,00,59,6.40
2011,05,18,01,00,6.40
2011,05,18,01,01,6.40
2011,05,18,01,02,6.40
2011,05,18,01,03,6.40
2011,05,18,01,04,6.30
2011,05,18,01,05,6.30
2011,05,18,01,06,6.30
2011,05,18,01,07,6.30
2011,05,18,01,08,6.30
2011,05,18,01,09,6.20
2011,05,18,01,10,6.20
2011,05,18,01,11,6.20
2011,05,18,01,12,6.20
2011,05,18,01,13,6.20
2011,05,18,01,14,6.20
2011,05,18,01,15,6.20
2011,05,18,01,16,6.20
2011,05,18,01,17,6.20
2011,05,18,01,18,6.20
2011,05,18,01,19,6.20
2011,05,18,01,20,6.20
2011,05,18,01,21,6.20
2011,05,18,01,22,6.20
2011,05,18,01,23,6.20
2011,05,18,01,24,6.20
2011,05,18,01,25,6.20
2011,05,18,01,26,6.20
2011,05,18,01,27,6.20
2011,05,18,01,28,6.20
2011,05,18,01,29,6.10
2011,05,18,01,30,6.10
2011,05,18,01,31,6.10
2011,05,18,01,32,6.10
2011,05,18,01,33,6.10
2011,05,18,01,34,6.10
2011,05,18,01,35,6.10
2011,05,18,01,36,6.10
2011,05,18,01,37,6.10
2011,05,18,01,38,6.00
2011,05,18,01,39,6.00
2011,05,18,01,40,6.00
2011,05,18,01,41,6.00
2011,05,18,01,42,6.00
2011,05,18,01,43,6.00
2011,05,18,01,44,6.10
2011,05,18,01,45,6.10
2011,05,18,01,46,6.10
2011,05,18,01,47,6.00
2011,05,18,01,48,5.90
2011,05,18,01,49,5.90
2011,05,18,01,50,5.90
2011,05,18,01,51,5.90
2011,05,18,01,52,5.90
2011,05,18,01,53,5.90
2011,05,18,01,54,5.90
2011,05,18,01,55,5.80
2011,05,18,01,56,5.80
2011,05,18,01,57,5.80
2011,05,18,01,58,5.80
2011,05,18,01,59,5.80
2011,05,18,02,00,5.80
2011,05,18,02,01,5.80
2011,05,18,02,02,5.80
2011,05,18,02,03,5.80
2011,05,18,02,04,5.80
2011,05,18,02,05,5.80
2011,05,18,02,06,5.70
2011,05,18,02,07,5.70
2011,05,18,02,08,5.70
2011,05,18,02,09,5.70
2011,05,18,02,10,5.70
2011,05,18,02,11,5.70
2011,05,18,02,12,5.60
2011,05,18,02,13,5.60
2011,05,18,02,14,5.60
2011,05,18,02,15,5.50
2011,05,18,02,16,5.50
2011,05,18,02,17,5.50
2011,05,18,02,18,5.50
2011,05,18,02,19,5.40
2011,05,18,02,20,5.40
2011,05,18,02,21,5.40
2011,05,18,02,22,5.40
2011,05,18,02,23,5.40
2011,05,18,02,24,5.40
2011,05,18,02,25,5.40
2011,05,18,02,26,5.40
2011,05,18,02,27,5.40
2011,05,18,02,28,5.40
2011,05,18,02,29,5.30
2011,05,18,02,30,5.40
2011,05,18,02,31,5.40
2011,05,18,02,32,5.40
2011,05,18,02,33,5.40
2011,05,18,02,34,5.30
2011,05,18,02,35,5.30
2011,05,18,02,36,5.30
2011,05,18,02,37,5.30
2011,05,18,02,38,5.30
2011,05,18,02,39,5.30
2011,05,18,02,40,5.30
2011,05,18,02,41,5.20
2011,05,18,02,42,5.20
2011,05,18,02,43,5.20
2011,05,18,02,44,5.20
2011,05,18,02,45,5.20
2011,05,18,02,46,5.10
2011,05,18,02,47,5.10
2011,05,18,02,48,5.10
2011,05,18,02,49,5.10
2011,05,18,02,50,5.10
2011,05,18,02,51,5.10
2011,05,18,02,52,5.10
2011,05,18,02,53,5.10
2011,05,18,02,54,5.10
2011,05,18,02,55,5.10
2011,05,18,02,56,5.10
2011,05,18,02,57,5.00
2011,05,18,02,58,5.00
2011,05,18,02,59,5.00
2011,05,18,03,00,5.00
2011,05,18,03,01,5.00
2011,05,18,03,02,4.90
2011,05,18,03,03,4.90
2011,05,18,03,04,4.90
2011,05,18,03,05,4.90
2011,05,18,03,06,4.90
2011,05,18,03,07,4.80
2011,05,18,03,08,4.80
2011,05,18,03,09,4.80
2011,05,18,03,10,4.80
2011,05,18,03,11,4.80
2011,05,18,03,12,4.80
2011,05,18,03,13,4.80
2011,05,18,03,14,4.80
2011,05,18,03,15,4.80
2011,05,18,03,16,4.80
2011,05,18,03,17,4.80
2011,05,18,03,18,4.80
2011,05,18,03,19,4.80
2011,05,18,03,20,4.70
2011,05,18,03,21,4.70
2011,05,18,03,22,4.70
2011,05,18,03,23,4.70
2011,05,18,03,24,4.70
2011,05,18,03,25,4.70
2011,05,18,03,26,4.80
2011,05,18,03,27,4.80
2011,05,18,03,28,4.80
2011,05,18,03,29,4.80
2011,05,18,03,30,4.70
2011,05,18,03,31,4.70
2011,05,18,03,32,4.70
2011,05,18,03,33,4.70
2011,05,18,03,34,4.70
2011,05,18,03,35,4.60
2011,05,18,03,36,4.60
2011,05,18,03,37,4.60
2011,05,18,03,38,4.60
2011,05,18,03,39,4.50
2011,05,18,03,40,4.50
2011,05,18,03,41,4.50
2011,05,18,03,42,4.50
2011,05,18,03,43,4.50
2011,05,18,03,44,4.40
2011,05,18,03,45,4.40
2011,05,18,03,46,4.40
2011,05,18,03,47,4.40
2011,05,18,03,48,4.40
2011,05,18,03,49,4.40
2011,05,18,03,50,4.40
2011,05,18,03,51,4.40
2011,05,18,03,52,4.40
2011,05,18,03,53,4.40
2011,05,18,03,54,4.40
2011,05,18,03,55,4.40
2011,05,18,03,56,4.40
2011,05,18,03,57,4.40
2011,05,18,03,58,4.40
2011,05,18,03,59,4.40
2011,05,18,04,00,4.40
2011,05,18,04,01,4.40
2011,05,18,04,02,4.40
2011,05,18,04,03,4.40
2011,05,18,04,04,4.40
2011,05,18,04,05,4.40
2011,05,18,04,06,4.40
2011,05,18,04,07,4.30
2011,05,18,04,08,4.30
2011,05,18,04,09,4.30
2011,05,18,04,10,4.30
2011,05,18,04,11,4.30
2011,05,18,04,12,4.30
2011,05,18,04,13,4.20
2011,05,18,04,14,4.20
2011,05,18,04,15,4.20
2011,05,18,04,16,4.20
2011,05,18,04,17,4.20
2011,05,18,04,18,4.20
2011,05,18,04,19,4.10
2011,05,18,04,20,4.10
2011,05,18,04,21,4.10
2011,05,18,04,22,4.10
2011,05,18,04,23,4.20
2011,05,18,04,24,4.20
2011,05,18,04,25,4.20
2011,05,18,04,26,4.20
2011,05,18,04,27,4.20
2011,05,18,04,28,4.20
2011,05,18,04,29,4.20
2011,05,18,04,30,4.20
2011,05,18,04,31,4.20
2011,05,18,04,32,4.20
2011,05,18,04,33,4.20
2011,05,18,04,34,4.20
2011,05,18,04,35,4.20
2011,05,18,04,36,4.20
2011,05,18,04,37,4.20
2011,05,18,04,38,4.20
2011,05,18,04,39,4.10
2011,05,18,04,40,4.10
2011,05,18,04,41,4.10
2011,05,18,04,42,4.10
2011,05,18,04,43,4.10
2011,05,18,04,44,4.10
2011,05,18,04,45,4.10
2011,05,18,04,46,4.10
2011,05,18,04,47,4.00
2011,05,18,04,48,4.00
2011,05,18,04,49,4.00
2011,05,18,04,50,4.00
2011,05,18,04,51,4.10
2011,05,18,04,52,4.10
2011,05,18,04,53,4.10
2011,05,18,04,54,4.00
2011,05,18,04,55,4.00
2011,05,18,04,56,4.00
2011,05,18,04,57,4.00
2011,05,18,04,58,4.00
2011,05,18,04,59,3.90
2011,05,18,05,00,3.90
2011,05,18,05,01,3.90
2011,05,18,05,02,3.90
2011,05,18,05,03,3.90
2011,05,18,05,04,3.90
2011,05,18,05,05,3.90
2011,05,18,05,06,3.80
2011,05,18,05,07,3.80
2011,05,18,05,08,3.80
2011,05,18,05,09,3.80
2011,05,18,05,10,3.80
2011,05,18,05,11,3.80
2011,05,18,05,12,3.80
2011,05,18,05,13,3.80
2011,05,18,05,14,3.80
2011,05,18,05,15,3.80
2011,05,18,05,16,3.80
2011,05,18,05,17,3.70
2011,05,18,05,18,3.70
2011,05,18,05,19,3.70
2011,05,18,05,20,3.70
2011,05,18,05,21,3.70
2011,05,18,05,22,3.70
2011,05,18,05,23,3.70
2011,05,18,05,24,3.70
2011,05,18,05,25,3.70
2011,05,18,05,26,3.70
2011,05,18,05,27,3.70
2011,05,18,05,28,3.70
2011,05,18,05,29,3.70
2011,05,18,05,30,3.70
2011,05,18,05,31,3.60
2011,05,18,05,32,3.60
2011,05,18,05,33,3.60
2011,05,18,05,34,3.60
2011,05,18,05,35,3.60
2011,05,18,05,36,3.60
2011,05,18,05,37,3.60
2011,05,18,05,38,3.60
2011,05,18,05,39,3.60
2011,05,18,05,40,3.70
2011,05,18,05,41,3.70
2011,05,18,05,42,3.70
2011,05,18,05,43,3.70
2011,05,18,05,44,3.70
2011,05,18,05,45,3.60
2011,05,18,05,46,3.60
2011,05,18,05,47,3.60
2011,05,18,05,48,3.60
2011,05,18,05,49,3.60
2011,05,18,05,50,3.60
2011,05,18,05,51,3.60
2011,05,18,05,52,3.60
2011,05,18,05,53,3.60
2011,05,18,05,54,3.60
2011,05,18,05,55,3.60
2011,05,18,05,56,3.60
2011,05,18,05,57,3.60
2011,05,18,05,58,3.60
2011,05,18,05,59,3.60
2011,05,18,06,00,3.60
2011,05,18,06,01,3.60
2011,05,18,06,02,3.70
2011,05,18,06,03,3.70
2011,05,18,06,04,3.80
2011,05,18,06,05,3.80
2011,05,18,06,06,3.80
2011,05,18,06,07,3.90
2011,05,18,06,08,3.90
2011,05,18,06,09,4.00
2011,05,18,06,10,4.00
2011,05,18,06,11,4.10
2011,05,18,06,12,4.10
2011,05,18,06,13,4.10
2011,05,18,06,14,4.10
2011,05,18,06,15,4.10
2011,05,18,06,16,4.10
2011,05,18,06,17,4.10
2011,05,18,06,18,4.10
2011,05,18,06,19,4.20
2011,05,18,06,20,4.20
2011,05,18,06,21,4.30
2011,05,18,06,22,4.30
2011,05,18,06,23,4.40
2011,05,18,06,24,4.40
2011,05,18,06,25,4.40
2011,05,18,06,26,4.50
2011,05,18,06,27,4.50
2011,05,18,06,28,4.60
2011,05,18,06,29,4.60
2011,05,18,06,30,4.70
2011,05,18,06,31,4.70
2011,05,18,06,32,4.70
2011,05,18,06,33,4.70
2011,05,18,06,34,4.80
2011,05,18,06,35,4.80
2011,05,18,06,36,4.80
2011,05,18,06,37,4.80
2011,05,18,06,38,4.80
2011,05,18,06,39,4.80
2011,05,18,06,40,4.90
2011,05,18,06,41,4.90
2011,05,18,06,42,4.90
2011,05,18,06,43,4.90
2011,05,18,06,44,4.90
2011,05,18,06,45,4.90
2011,05,18,06,46,4.90
2011,05,18,06,47,4.90
2011,05,18,06,48,4.90
2011,05,18,06,49,4.90
2011,05,18,06,50,4.90
2011,05,18,06,51,4.90
2011,05,18,06,52,4.90
2011,05,18,06,53,4.90
2011,05,18,06,54,4.90
2011,05,18,06,55,4.90
2011,05,18,06,56,4.90
2011,05,18,06,57,4.90
2011,05,18,06,58,4.90
2011,05,18,06,59,4.90
2011,05,18,07,00,5.00
2011,05,18,07,01,5.00
2011,05,18,07,02,5.00
2011,05,18,07,03,5.10
2011,05,18,07,04,5.10
2011,05,18,07,05,5.10
2011,05,18,07,06,5.20
2011,05,18,07,07,5.20
2011,05,18,07,08,5.30
2011,05,18,07,09,5.30
2011,05,18,07,10,5.40
2011,05,18,07,11,5.40
2011,05,18,07,12,5.50
2011,05,18,07,13,5.50
2011,05,18,07,14,5.60
2011,05,18,07,15,5.60
2011,05,18,07,16,5.70
2011,05,18,07,17,5.70
2011,05,18,07,18,5.80
2011,05,18,07,19,5.80
2011,05,18,07,20,5.80
2011,05,18,07,21,5.90
2011,05,18,07,22,5.90
2011,05,18,07,23,5.90
2011,05,18,07,24,6.00
2011,05,18,07,25,6.00
2011,05,18,07,26,6.10
2011,05,18,07,27,6.10
2011,05,18,07,28,6.20
2011,05,18,07,29,6.20
2011,05,18,07,30,6.20
2011,05,18,07,31,6.30
2011,05,18,07,32,6.30
2011,05,18,07,33,6.30
2011,05,18,07,34,6.30
2011,05,18,07,35,6.30
2011,05,18,07,36,6.40
2011,05,18,07,37,6.40
2011,05,18,07,38,6.40
2011,05,18,07,39,6.50
2011,05,18,07,40,6.60
2011,05,18,07,41,6.60
2011,05,18,07,42,6.70
2011,05,18,07,43,6.70
2011,05,18,07,44,6.80
2011,05,18,07,45,6.80
2011,05,18,07,46,6.80
2011,05,18,07,47,6.80
2011,05,18,07,48,6.90
2011,05,18,07,49,6.90
2011,05,18,07,50,7.00
2011,05,18,07,51,7.10
2011,05,18,07,52,7.10
2011,05,18,07,53,7.20
2011,05,18,07,54,7.20
2011,05,18,07,55,7.30
2011,05,18,07,56,7.30
2011,05,18,07,57,7.40
2011,05,18,07,58,7.40
2011,05,18,07,59,7.50
2011,05,18,08,00,7.50
2011,05,18,08,01,7.60
2011,05,18,08,02,7.60
2011,05,18,08,03,7.70
2011,05,18,08,04,7.70
2011,05,18,08,05,7.70
2011,05,18,08,06,7.70
2011,05,18,08,07,7.80
2011,05,18,08,08,7.90
2011,05,18,08,09,7.90
2011,05,18,08,10,8.00
2011,05,18,08,11,8.10
2011,05,18,08,12,8.10
2011,05,18,08,13,8.20
2011,05,18,08,14,8.20
2011,05,18,08,15,8.30
2011,05,18,08,16,8.30
2011,05,18,08,17,8.30
2011,05,18,08,18,8.40
2011,05,18,08,19,8.40
2011,05,18,08,20,8.50
2011,05,18,08,21,8.60
2011,05,18,08,22,8.60
2011,05,18,08,23,8.60
2011,05,18,08,24,8.70
2011,05,18,08,25,8.80
2011,05,18,08,26,8.80
2011,05,18,08,27,8.90
2011,05,18,08,28,8.90
2011,05,18,08,29,9.00
2011,05,18,08,30,9.00
2011,05,18,08,31,9.00
2011,05,18,08,32,9.10
2011,05,18,08,33,9.10
2011,05,18,08,34,9.20
2011,05,18,08,35,9.20
2011,05,18,08,36,9.30
2011,05,18,08,37,9.30
2011,05,18,08,38,9.40
2011,05,18,08,39,9.50
2011,05,18,08,40,9.50
2011,05,18,08,41,9.60
2011,05,18,08,42,9.60
2011,05,18,08,43,9.70
2011,05,18,08,44,9.80
2011,05,18,08,45,9.80
2011,05,18,08,46,9.90
2011,05,18,08,47,10.00
2011,05,18,08,48,10.00
2011,05,18,08,49,10.10
2011,05,18,08,50,10.20
2011,05,18,08,51,10.20
2011,05,18,08,52,10.30
2011,05,18,08,53,10.30
2011,05,18,08,54,10.30
2011,05,18,08,55,10.40
2011,05,18,08,56,10.50
2011,05,18,08,57,10.50
2011,05,18,08,58,10.60
2011,05,18,08,59,10.60
2011,05,18,09,00,10.70
2011,05,18,09,01,10.70
2011,05,18,09,02,10.80
2011,05,18,09,03,10.80
2011,05,18,09,04,10.80
2011,05,18,09,05,10.80
2011,05,18,09,06,10.80
2011,05,18,09,07,10.90
2011,05,18,09,08,10.90
2011,05,18,09,09,10.90
2011,05,18,09,10,11.00
2011,05,18,09,11,11.00
2011,05,18,09,12,11.10
2011,05,18,09,13,11.10
2011,05,18,09,14,11.20
2011,05,18,09,15,11.20
2011,05,18,09,16,11.30
2011,05,18,09,17,11.30
2011,05,18,09,18,11.40
2011,05,18,09,19,11.40
2011,05,18,09,20,11.50
2011,05,18,09,21,11.50
2011,05,18,09,22,11.60
2011,05,18,09,23,11.60
2011,05,18,09,24,11.70
2011,05,18,09,25,11.70
2011,05,18,09,26,11.80
2011,05,18,09,27,11.80
2011,05,18,09,28,11.80
2011,05,18,09,29,11.90
2011,05,18,09,30,11.90
2011,05,18,09,31,11.90
2011,05,18,09,32,11.90
2011,05,18,09,33,12.00
2011,05,18,09,34,12.00
2011,05,18,09,35,12.00
2011,05,18,09,36,12.10
2011,05,18,09,37,12.20
2011,05,18,09,38,12.20
2011,05,18,09,39,12.30
2011,05,18,09,40,12.40
2011,05,18,09,41,12.50
2011,05,18,09,42,12.70
2011,05,18,09,43,12.80
2011,05,18,09,44,12.80
2011,05,18,09,45,12.80
2011,05,18,09,46,12.80
2011,05,18,09,47,12.80
2011,05,18,09,48,12.90
2011,05,18,09,49,12.90
2011,05,18,09,50,13.00
2011,05,18,09,51,13.10
2011,05,18,09,52,13.10
2011,05,18,09,53,13.10
2011,05,18,09,54,13.20
2011,05,18,09,55,13.20
2011,05,18,09,56,13.30
2011,05,18,09,57,13.40
2011,05,18,09,58,13.50
2011,05,18,09,59,13.50
2011,05,18,10,00,13.60
2011,05,18,10,01,13.60
2011,05,18,10,02,13.50
2011,05,18,10,03,13.40
2011,05,18,10,04,13.40
2011,05,18,10,05,13.40
2011,05,18,10,06,13.50
2011,05,18,10,07,13.50
2011,05,18,10,08,13.60
2011,05,18,10,09,13.70
2011,05,18,10,10,13.80
2011,05,18,10,11,13.90
2011,05,18,10,12,14.00
2011,05,18,10,13,14.00
2011,05,18,10,14,14.10
2011,05,18,10,15,14.20
2011,05,18,10,16,14.20
2011,05,18,10,17,14.30
2011,05,18,10,18,14.30
2011,05,18,10,19,14.20
2011,05,18,10,20,14.20
2011,05,18,10,21,14.20
2011,05,18,10,22,14.20
2011,05,18,10,23,14.20
2011,05,18,10,24,14.20
2011,05,18,10,25,14.20
2011,05,18,10,26,14.20
2011,05,18,10,27,14.20
2011,05,18,10,28,14.30
2011,05,18,10,29,14.40
2011,05,18,10,30,14.50
2011,05,18,10,31,14.50
2011,05,18,10,32,14.60
2011,05,18,10,33,14.70
2011,05,18,10,34,14.70
2011,05,18,10,35,14.80
2011,05,18,10,36,14.80
2011,05,18,10,37,14.80
2011,05,18,10,38,14.80
2011,05,18,10,39,14.80
2011,05,18,10,40,14.90
2011,05,18,10,41,15.00
2011,05,18,10,42,15.00
2011,05,18,10,43,15.00
2011,05,18,10,44,15.00
2011,05,18,10,45,14.90
2011,05,18,10,46,14.80
2011,05,18,10,47,14.70
2011,05,18,10,48,14.70
2011,05,18,10,49,14.70
2011,05,18,10,50,14.80
2011,05,18,10,51,14.70
2011,05,18,10,52,14.70
2011,05,18,10,53,14.70
2011,05,18,10,54,14.70
2011,05,18,10,55,14.70
2011,05,18,10,56,14.70
2011,05,18,10,57,14.80
2011,05,18,10,58,14.80
2011,05,18,10,59,14.90
2011,05,18,11,00,15.00
2011,05,18,11,01,15.00
2011,05,18,11,02,15.00
2011,05,18,11,03,15.00
2011,05,18,11,04,14.90
2011,05,18,11,05,14.70
2011,05,18,11,06,14.60
2011,05,18,11,07,14.60
2011,05,18,11,08,14.50
2011,05,18,11,09,14.50
2011,05,18,11,10,14.60
2011,05,18,11,11,14.80
2011,05,18,11,12,15.00
2011,05,18,11,13,15.00
2011,05,18,11,14,15.00
2011,05,18,11,15,14.90
2011,05,18,11,16,14.70
2011,05,18,11,17,14.60
2011,05,18,11,18,14.60
2011,05,18,11,19,14.60
2011,05,18,11,20,14.60
2011,05,18,11,21,14.60
2011,05,18,11,22,14.70
2011,05,18,11,23,14.90
2011,05,18,11,24,15.00
2011,05,18,11,25,15.00
2011,05,18,11,26,15.00
2011,05,18,11,27,15.10
2011,05,18,11,28,15.10
2011,05,18,11,29,15.20
2011,05,18,11,30,15.20
2011,05,18,11,31,15.30
2011,05,18,11,32,15.20
2011,05,18,11,33,15.20
2011,05,18,11,34,15.10
2011,05,18,11,35,15.10
2011,05,18,11,36,15.10
2011,05,18,11,37,15.10
2011,05,18,11,38,15.10
2011,05,18,11,39,15.10
2011,05,18,11,40,15.20
2011,05,18,11,41,15.30
2011,05,18,11,42,15.30
2011,05,18,11,43,15.30
2011,05,18,11,44,15.30
2011,05,18,11,45,15.20
2011,05,18,11,46,15.20
2011,05,18,11,47,15.30
2011,05,18,11,48,15.30
2011,05,18,11,49,15.40
2011,05,18,11,50,15.40
2011,05,18,11,51,15.30
2011,05,18,11,52,15.30
2011,05,18,11,53,15.40
2011,05,18,11,54,15.40
2011,05,18,11,55,15.40
2011,05,18,11,56,15.40
2011,05,18,11,57,15.40
2011,05,18,11,58,15.40
2011,05,18,11,59,15.40
2011,05,18,12,00,15.30
2011,05,18,12,01,15.30
2011,05,18,12,02,15.40
2011,05,18,12,03,15.40
2011,05,18,12,04,15.40
2011,05,18,12,05,15.30
2011,05,18,12,06,15.20
2011,05,18,12,07,15.10
2011,05,18,12,08,15.00
2011,05,18,12,09,15.10
2011,05,18,12,10,15.20
2011,05,18,12,11,15.20
2011,05,18,12,12,15.10
2011,05,18,12,13,15.20
2011,05,18,12,14,15.20
2011,05,18,12,15,15.30
2011,05,18,12,16,15.30
2011,05,18,12,17,15.30
2011,05,18,12,18,15.30
2011,05,18,12,19,15.40
2011,05,18,12,20,15.40
2011,05,18,12,21,15.40
2011,05,18,12,22,15.40
2011,05,18,12,23,15.40
2011,05,18,12,24,15.40
2011,05,18,12,25,15.40
2011,05,18,12,26,15.40
2011,05,18,12,27,15.40
2011,05,18,12,28,15.40
2011,05,18,12,29,15.40
2011,05,18,12,30,15.50
2011,05,18,12,31,15.60
2011,05,18,12,32,15.70
2011,05,18,12,33,15.90
2011,05,18,12,34,16.00
2011,05,18,12,35,16.10
2011,05,18,12,36,16.20
2011,05,18,12,37,16.40
2011,05,18,12,38,16.50
2011,05,18,12,39,16.50
2011,05,18,12,40,16.60
2011,05,18,12,41,16.70
2011,05,18,12,42,16.80
2011,05,18,12,43,16.80
2011,05,18,12,44,16.70
2011,05,18,12,45,16.70
2011,05,18,12,46,16.70
2011,05,18,12,47,16.70
2011,05,18,12,48,16.60
2011,05,18,12,49,16.60
2011,05,18,12,50,16.50
2011,05,18,12,51,16.50
2011,05,18,12,52,16.40
2011,05,18,12,53,16.30
2011,05,18,12,54,16.30
2011,05,18,12,55,16.40
2011,05,18,12,56,16.40
2011,05,18,12,57,16.40
2011,05,18,12,58,16.40
2011,05,18,12,59,16.40
2011,05,18,13,00,16.40
2011,05,18,13,01,16.40
2011,05,18,13,02,16.50
2011,05,18,13,03,16.50
2011,05,18,13,04,16.60
2011,05,18,13,05,16.60
2011,05,18,13,06,16.60
2011,05,18,13,07,16.60
2011,05,18,13,08,16.70
2011,05,18,13,09,16.70
2011,05,18,13,10,16.70
2011,05,18,13,11,16.70
2011,05,18,13,12,16.80
2011,05,18,13,13,16.90
2011,05,18,13,14,17.00
2011,05,18,13,15,17.10
2011,05,18,13,16,17.20
2011,05,18,13,17,17.10
2011,05,18,13,18,17.10
2011,05,18,13,19,17.00
2011,05,18,13,20,16.90
2011,05,18,13,21,16.90
2011,05,18,13,22,17.00
2011,05,18,13,23,17.00
2011,05,18,13,24,17.10
2011,05,18,13,25,17.10
2011,05,18,13,26,17.00
2011,05,18,13,27,17.00
2011,05,18,13,28,16.90
2011,05,18,13,29,16.90
2011,05,18,13,30,16.80
2011,05,18,13,31,16.80
2011,05,18,13,32,16.80
2011,05,18,13,33,16.80
2011,05,18,13,34,16.80
2011,05,18,13,35,16.80
2011,05,18,13,36,16.80
2011,05,18,13,37,16.90
2011,05,18,13,38,17.00
2011,05,18,13,39,17.00
2011,05,18,13,40,16.90
2011,05,18,13,41,16.90
2011,05,18,13,42,16.90
2011,05,18,13,43,16.90
2011,05,18,13,44,16.90
2011,05,18,13,45,16.90
2011,05,18,13,46,17.00
2011,05,18,13,47,17.10
2011,05,18,13,48,17.10
2011,05,18,13,49,17.10
2011,05,18,13,50,17.10
2011,05,18,13,51,17.10
2011,05,18,13,52,17.10
2011,05,18,13,53,17.10
2011,05,18,13,54,17.00
2011,05,18,13,55,17.00
2011,05,18,13,56,17.10
2011,05,18,13,57,17.20
2011,05,18,13,58,17.20
2011,05,18,13,59,17.30
2011,05,18,14,00,17.20
2011,05,18,14,01,17.20
2011,05,18,14,02,17.20
2011,05,18,14,03,17.20
2011,05,18,14,04,17.20
2011,05,18,14,05,17.20
2011,05,18,14,06,17.20
2011,05,18,14,07,17.20
2011,05,18,14,08,17.20
2011,05,18,14,09,17.20
2011,05,18,14,10,17.20
2011,05,18,14,11,17.30
2011,05,18,14,12,17.40
2011,05,18,14,13,17.60
2011,05,18,14,14,17.70
2011,05,18,14,15,17.80
2011,05,18,14,16,17.80
2011,05,18,14,17,17.80
2011,05,18,14,18,17.70
2011,05,18,14,19,17.70
2011,05,18,14,20,17.70
2011,05,18,14,21,17.70
2011,05,18,14,22,17.70
2011,05,18,14,23,17.80
2011,05,18,14,24,17.80
2011,05,18,14,25,17.80
2011,05,18,14,26,17.80
2011,05,18,14,27,17.70
2011,05,18,14,28,17.70
2011,05,18,14,29,17.60
2011,05,18,14,30,17.60
2011,05,18,14,31,17.60
2011,05,18,14,32,17.60
2011,05,18,14,33,17.70
2011,05,18,14,34,17.70
2011,05,18,14,35,17.70
2011,05,18,14,36,17.70
2011,05,18,14,37,17.80
2011,05,18,14,38,17.80
2011,05,18,14,39,17.90
2011,05,18,14,40,17.90
2011,05,18,14,41,17.90
2011,05,18,14,42,17.90
2011,05,18,14,43,17.90
2011,05,18,14,44,18.00
2011,05,18,14,45,18.00
2011,05,18,14,46,18.10
2011,05,18,14,47,18.10
2011,05,18,14,48,18.00
2011,05,18,14,49,18.00
2011,05,18,14,50,18.00
2011,05,18,14,51,18.00
2011,05,18,14,52,18.00
2011,05,18,14,53,18.00
2011,05,18,14,54,18.00
2011,05,18,14,55,18.10
2011,05,18,14,56,18.10
2011,05,18,14,57,18.00
2011,05,18,14,58,18.00
2011,05,18,14,59,18.10
2011,05,18,15,00,18.20
2011,05,18,15,01,18.20
2011,05,18,15,02,18.30
2011,05,18,15,03,18.30
2011,05,18,15,04,18.30
2011,05,18,15,05,18.30
2011,05,18,15,06,18.30
2011,05,18,15,07,18.40
2011,05,18,15,08,18.40
2011,05,18,15,09,18.50
2011,05,18,15,10,18.60
2011,05,18,15,11,18.50
2011,05,18,15,12,18.40
2011,05,18,15,13,18.30
2011,05,18,15,14,18.30
2011,05,18,15,15,18.30
2011,05,18,15,16,18.10
2011,05,18,15,17,17.80
2011,05,18,15,18,17.80
2011,05,18,15,19,17.80
2011,05,18,15,20,17.80
2011,05,18,15,21,17.90
2011,05,18,15,22,18.00
2011,05,18,15,23,18.10
2011,05,18,15,24,18.20
2011,05,18,15,25,18.20
2011,05,18,15,26,18.20
2011,05,18,15,27,18.30
2011,05,18,15,28,18.30
2011,05,18,15,29,18.30
2011,05,18,15,30,18.30
2011,05,18,15,31,18.30
2011,05,18,15,32,18.30
2011,05,18,15,33,18.30
2011,05,18,15,34,18.30
2011,05,18,15,35,18.30
2011,05,18,15,36,18.30
2011,05,18,15,37,18.30
2011,05,18,15,38,18.20
2011,05,18,15,39,18.20
2011,05,18,15,40,18.20
2011,05,18,15,41,18.20
2011,05,18,15,42,18.20
2011,05,18,15,43,18.20
2011,05,18,15,44,18.20
2011,05,18,15,45,18.20
2011,05,18,15,46,18.20
2011,05,18,15,47,18.20
2011,05,18,15,48,18.20
2011,05,18,15,49,18.30
2011,05,18,15,50,18.30
2011,05,18,15,51,18.30
2011,05,18,15,52,18.30
2011,05,18,15,53,18.20
2011,05,18,15,54,18.20
2011,05,18,15,55,18.20
2011,05,18,15,56,18.20
2011,05,18,15,57,18.20
2011,05,18,15,58,18.10
2011,05,18,15,59,18.00
2011,05,18,16,00,17.90
2011,05,18,16,01,17.90
2011,05,18,16,02,17.80
2011,05,18,16,03,17.80
2011,05,18,16,04,17.90
2011,05,18,16,05,17.90
2011,05,18,16,06,17.90
2011,05,18,16,07,17.80
2011,05,18,16,08,17.80
2011,05,18,16,09,17.80
2011,05,18,16,10,17.80
2011,05,18,16,11,17.70
2011,05,18,16,12,17.70
2011,05,18,16,13,17.60
2011,05,18,16,14,17.60
2011,05,18,16,15,17.50
2011,05,18,16,16,17.50
2011,05,18,16,17,17.50
2011,05,18,16,18,17.50
2011,05,18,16,19,17.50
2011,05,18,16,20,17.50
2011,05,18,16,21,17.60
2011,05,18,16,22,17.60
2011,05,18,16,23,17.70
2011,05,18,16,24,17.70
2011,05,18,16,25,17.80
2011,05,18,16,26,17.80
2011,05,18,16,27,17.80
2011,05,18,16,28,17.80
2011,05,18,16,29,17.90
2011,05,18,16,30,18.00
2011,05,18,16,31,18.00
2011,05,18,16,32,18.10
2011,05,18,16,33,18.20
2011,05,18,16,34,18.20
2011,05,18,16,35,18.30
2011,05,18,16,36,18.30
2011,05,18,16,37,18.20
2011,05,18,16,38,18.10
2011,05,18,16,39,18.00
2011,05,18,16,40,18.00
2011,05,18,16,41,18.10
2011,05,18,16,42,18.20
2011,05,18,16,43,18.10
2011,05,18,16,44,18.10
2011,05,18,16,45,18.10
2011,05,18,16,46,18.10
2011,05,18,16,47,18.10
2011,05,18,16,48,18.20
2011,05,18,16,49,18.20
2011,05,18,16,50,18.30
2011,05,18,16,51,18.40
2011,05,18,16,52,18.40
2011,05,18,16,53,18.40
2011,05,18,16,54,18.30
2011,05,18,16,55,18.20
2011,05,18,16,56,18.10
2011,05,18,16,57,18.00
2011,05,18,16,58,18.00
2011,05,18,16,59,17.90
2011,05,18,17,00,17.90
2011,05,18,17,01,17.80
2011,05,18,17,02,17.80
2011,05,18,17,03,17.80
2011,05,18,17,04,17.80
2011,05,18,17,05,17.80
2011,05,18,17,06,17.80
2011,05,18,17,07,17.90
2011,05,18,17,08,17.90
2011,05,18,17,09,17.90
2011,05,18,17,10,17.90
2011,05,18,17,11,17.90
2011,05,18,17,12,17.80
2011,05,18,17,13,17.80
2011,05,18,17,14,17.80
2011,05,18,17,15,17.80
2011,05,18,17,16,17.80
2011,05,18,17,17,17.80
2011,05,18,17,18,17.80
2011,05,18,17,19,17.80
2011,05,18,17,20,17.80
2011,05,18,17,21,17.80
2011,05,18,17,22,17.80
2011,05,18,17,23,17.80
2011,05,18,17,24,17.80
2011,05,18,17,25,17.80
2011,05,18,17,26,17.80
2011,05,18,17,27,17.80
2011,05,18,17,28,17.80
2011,05,18,17,29,17.80
2011,05,18,17,30,17.80
2011,05,18,17,31,17.80
2011,05,18,17,32,17.80
2011,05,18,17,33,17.80
2011,05,18,17,34,17.80
2011,05,18,17,35,17.80
2011,05,18,17,36,17.80
2011,05,18,17,37,17.80
2011,05,18,17,38,17.80
2011,05,18,17,39,17.90
2011,05,18,17,40,17.90
2011,05,18,17,41,17.90
2011,05,18,17,42,17.90